Location: Newark
(55.7083°N, 13.1992°E)
Time: 23:44:46
(UTC+00:00)

Envisat - Pass Details

Date: 13 October 2022
Orbit: 763 x 765 km, 98.2° (Epoch: 09 December)

Event Time Altitude Azimuth Distance (km) Brightness Sun altitude
Rises 02:41:56 0° 20° (NNE) 3,249 6.9 -24.5°
Reaches altitude 10° 02:44:32 10° 32° (NNE) 2,317 6.2 -24.1°
Maximum altitude 02:49:01 30° 93° (E) 1,349 4.8 -23.6°
Drops below altitude 10° 02:53:28 10° 154° (SSE) 2,301 5.5 -23.0°
Sets 02:56:01 0° 165° (SSE) 3,222 6.2 -22.6°
